Fairbanks, AK

5:17 AM AKST on December 03, 2016 (GMT -0900)
Fairbanks International

Weather History for PAFA - March, 2014

Change the Weather History Date:

Wednesday, March 19, 2014

  Actual Average Record
Temperature  
Mean Temperature 12 °F 13 °F  
Max Temperature 26 °F 27 °F 54 °F (1915)
Min Temperature -3 °F -2 °F -35 °F (1928)
Degree Days  
Heating Degree Days 53 52  
Month to date heating degree days 1032 1082  
Since 1 July heating degree days 10424 11472  
Cooling Degree Days 0 0  
Month to date cooling degree days 0 0  
Year to date cooling degree days 0 0  
Moisture  
Dew Point 9 °F    
Average Humidity 68    
Maximum Humidity 81    
Minimum Humidity 41    
Precipitation  
Precipitation 0.01 in 0.01 in 0.21 in (1935)
Month to date precipitation 0.21 0.17  
Year to date precipitation 0.83 1.17  
Snow  
Snow 0.50 in 0.20 in 2.20 in (1966)
Month to date snowfall 3.1 3.3  
Since 1 July snowfall 46.0 59.6  
Snow Depth 21.00 in    
Sea Level Pressure  
Sea Level Pressure 30.37 in    
Wind  
Wind Speed 8 mph (WSW)    
Max Wind Speed 16 mph    
Max Gust Speed 17 mph    
Visibility 6 miles    
Events Snow    
T = Trace of Precipitation, MM = Missing Value Source: NWS Daily Summary

Daily Weather History Graph

Daily Weather History Graph

Search for Another Location

Airport or City:

Trip Planner

Search our weather history database for the weather conditions in past years. The results will help you decide how hot, cold, wet, or windy it might be!

Date:

Astronomy

Mar. 19, 2014 Rise Set
Actual Time 7:54 AM AKDT 8:05 PM AKDT
Civil Twilight 7:06 AM AKDT 8:54 PM AKDT
Nautical Twilight 6:06 AM AKDT 9:54 PM AKDT
Astronomical Twilight 4:58 AM AKDT 11:03 PM AKDT
Moon No Moon Rise 8:16 AM AKDT (3/19)
Length of Visible Light 13h 48m
Length of Day
12h 10m
Waning Gibbous, 90% of the Moon is Illuminated
Mar 19
Waning Gibbous
Mar 23
Last Quarter
Mar 30
New
Apr 7
First Quarter
Apr 14
Full

Hourly Weather History & Observations

Time (AKDT) Temp. Windchill Dew Point Humidity Pressure Visibility Wind Dir Wind Speed Gust Speed Precip Events Conditions
12:53 AM 27.0 °F 18.7 °F 18.0 °F 69% 30.11 in 10.0 mi WSW 8.1 mph - N/A   Mostly Cloudy
1:53 AM 24.1 °F 13.7 °F 17.1 °F 75% 30.14 in 8.0 mi WSW 10.4 mph 17.3 mph N/A Snow Light Snow
2:53 AM 21.9 °F 10.4 °F 15.1 °F 75% 30.17 in 5.0 mi WSW 11.5 mph - N/A Snow Light Snow
3:53 AM 21.0 °F 9.9 °F 14.0 °F 74% 30.20 in 5.0 mi WSW 10.4 mph - N/A Snow Light Snow
4:53 AM 19.9 °F 5.7 °F 12.9 °F 74% 30.23 in 3.0 mi WSW 16.1 mph - N/A Snow Light Snow
5:53 AM 19.0 °F 5.0 °F 10.9 °F 71% 30.26 in 6.0 mi West 15.0 mph - N/A Snow Light Snow
6:53 AM 18.0 °F 6.9 °F 10.9 °F 74% 30.29 in 4.0 mi WSW 9.2 mph - N/A Snow Light Snow
7:53 AM 18.0 °F 8.7 °F 10.9 °F 74% 30.32 in 3.0 mi Variable 6.9 mph - N/A Snow Light Snow
8:27 AM 17.1 °F 11.7 °F 10.9 °F 77% 30.30 in 2.0 mi Variable 3.5 mph - N/A Snow Light Snow
8:53 AM 17.1 °F 11.7 °F 12.0 °F 81% 30.34 in 1.5 mi Variable 3.5 mph - N/A Snow Light Snow
9:53 AM 18.0 °F 11.1 °F 12.0 °F 78% 30.36 in 1.5 mi SW 4.6 mph - N/A Snow Light Snow
10:17 AM 18.0 °F 8.7 °F 10.9 °F 74% 30.33 in 2.0 mi WSW 6.9 mph - N/A Snow Light Snow
10:42 AM 18.0 °F 6.9 °F 10.0 °F 71% 30.34 in 2.5 mi WSW 9.2 mph - N/A Snow Light Snow
10:53 AM 19.0 °F 9.0 °F 10.0 °F 68% 30.38 in 3.0 mi WSW 8.1 mph - N/A Snow Light Snow
11:53 AM 19.0 °F 8.2 °F 10.0 °F 68% 30.40 in 6.0 mi WSW 9.2 mph - N/A Snow Light Snow
12:53 PM 19.9 °F 12.1 °F 10.0 °F 65% 30.42 in 7.0 mi WSW 5.8 mph - N/A Snow Light Snow
1:53 PM 21.0 °F 16.2 °F 10.0 °F 63% 30.43 in 7.0 mi Variable 3.5 mph - N/A Snow Light Snow
2:53 PM 23.0 °F 15.8 °F 9.0 °F 55% 30.44 in 10.0 mi WSW 5.8 mph - N/A   Mostly Cloudy
3:53 PM 21.9 °F 12.5 °F 8.1 °F 55% 30.45 in 10.0 mi SSW 8.1 mph - N/A   Mostly Cloudy
4:53 PM 21.9 °F 12.5 °F 8.1 °F 55% 30.46 in 10.0 mi SSW 8.1 mph - N/A   Mostly Cloudy
5:53 PM 21.9 °F 13.4 °F 8.1 °F 55% 30.47 in 10.0 mi South 6.9 mph - N/A   Mostly Cloudy
6:53 PM 21.0 °F 14.6 °F 7.0 °F 55% 30.48 in 10.0 mi SSW 4.6 mph - N/A   Mostly Cloudy
7:53 PM 19.9 °F 14.9 °F 6.1 °F 55% 30.49 in 10.0 mi SW 3.5 mph - N/A   Mostly Cloudy
8:53 PM 10.0 °F - 1.0 °F 67% 30.51 in 10.0 mi Calm Calm - N/A   Scattered Clouds
9:53 PM 3.9 °F -3.4 °F -2.0 °F 76% 30.52 in 10.0 mi NNE 3.5 mph - N/A   Clear
10:53 PM 1.0 °F - -4.0 °F 79% 30.53 in 10.0 mi Calm Calm - N/A   Clear
11:53 PM -0.0 °F - -6.0 °F 76% 30.54 in 10.0 mi Calm Calm - N/A   Clear